Terug naar catalogus

GOSAT-GW

ActiefWetenschapSSO
NORAD 64694·PAYLOAD·🇯🇵 Japan

Gelanceerd Jun 28, 2025 vanaf Tanegashima Space Center

Loading…

Volgende Passages (komende 24 uur)

TLE

VersSource: Space-Track

Epoch: Sep 14, 2026, 22:00 UTC

1 64694U 25141A   26257.91696566  .00000488  00000-0  94375-4 0  9994
2 64694  98.0600 193.7823 0001441  84.7282 275.4087 14.67555047 65006

Volg GOSAT-GW in realtime met AllMySat

Download on the App Store